N1SU-13 Weather Reports


time (UTC)temp
C
wind
direction
speed
KPH
gust
KPH
rain 1hr
cm
rain 24hr
cm
rain mn
cm
humidity
%
barometer
mb
20260906142800 8 0.0 0.0 0.00 0.00 0.00 93 1015.5
20260906141718 8 0.0 0.0 0.00 0.00 0.00 94 1015.4
20260906140641 8 0.0 0.0 0.00 0.00 0.00 93 1015.4
20260906135725 8 0.0 0.0 0.00 0.00 0.00 94 1015.5
20260906134650 8 0.0 0.0 0.00 0.00 0.00 94 1015.5
20260906133546 8 0.0 0.0 0.00 0.00 0.00 94 1015.4
20260906132553 8 0.0 0.0 0.00 0.00 0.00 94 1015.4
20260906131525 8 0.0 0.0 0.00 0.00 0.00 94 1015.2
20260906130534 8 0.0 0.0 0.00 0.00 0.00 94 1015.4
20260906125449 8 0.0 0.0 0.00 0.00 0.00 93 1015.4
20260906124416 8 0.0 0.0 0.00 0.00 0.00 93 1015.3
20260906123448 8 0.0 0.0 0.00 0.00 0.00 92 1015.3
20260906121324 9 0.0 0.0 0.00 0.00 0.00 92 1015.3
20260906120350 9 0.0 0.0 0.00 0.00 0.00 92 1015.4
20260906115350 9 0.0 0.0 0.00 0.00 0.00 92 1015.4
20260906114235 9 0.0 0.0 0.00 0.00 0.00 91 1015.5
20260906113157 9 0.0 0.0 0.00 0.00 0.00 91 1015.5
20260906112119 9 0.0 0.0 0.00 0.00 0.00 90 1015.4
20260906111120 10 0.0 0.0 0.00 0.00 0.00 91 1015.4
20260906110307 10 0.0 0.0 0.00 0.00 0.00 91 1015.4
20260906110133 10 0.0 0.0 0.00 0.00 0.00 91 1015.5
20260906105125 10 0.0 0.0 0.00 0.00 0.00 90 1015.6
20260906104128 10 0.0 0.0 0.00 0.00 0.00 90 1015.4
20260906103040 10 0.0 0.0 0.00 0.00 0.00 90 1015.5
20260906102116 10 0.0 0.0 0.00 0.00 0.00 90 1015.6
20260906101018 10 0.0 0.0 0.00 0.00 0.00 90 1015.6
20260906100006 10 0.0 0.0 0.00 0.00 0.00 89 1015.5
20260906095043 10 0.0 0.0 0.00 0.00 0.00 89 1015.5
20260906093920 10 0.0 0.0 0.00 0.00 0.00 89 1015.3
20260906092955 10 0.0 0.0 0.00 0.00 0.00 89 1015.3
20260906092000 10 0.0 0.0 0.00 0.00 0.00 88 1015.2
20260906090854 10 0.0 0.0 0.00 0.00 0.00 87 1015.2
20260906085840 10 0.0 0.0 0.00 0.00 0.00 87 1015.2
20260906084800 11 0.0 0.0 0.00 0.00 0.00 87 1015.2
20260906083623 11 0.0 0.0 0.00 0.00 0.00 86 1015.4
20260906082630 11 0.0 0.0 0.00 0.00 0.00 87 1015.5
20260906081450 11 0.0 0.0 0.00 0.00 0.00 86 1015.4
20260906080430 11 0.0 0.0 0.00 0.00 0.00 86 1015.4
20260906075330 11 0.0 0.0 0.00 0.00 0.00 85 1015.5
20260906074154 11 0.0 0.0 0.00 0.00 0.00 84 1015.6
20260906073203 11 0.0 0.0 0.00 0.00 0.00 84 1015.5
20260906072143 11 0.0 0.0 0.00 0.00 0.00 84 1015.5
20260906071001 11 0.0 0.0 0.00 0.00 0.00 83 1015.7
20260906065926 11 0.0 0.0 0.00 0.00 0.00 82 1015.7
20260906064941 12 0.0 0.0 0.00 0.00 0.00 82 1015.7
20260906063823 12 0.0 0.0 0.00 0.00 0.00 81 1015.6
20260906062858 12 0.0 0.0 0.00 0.00 0.00 81 1015.6
20260906061802 12 0.0 0.0 0.00 0.00 0.00 80 1015.7
20260906060817 12 0.0 0.0 0.00 0.00 0.00 79 1015.7
20260906055840 12 0.0 0.0 0.00 0.00 0.00 79 1015.7
20260906054819 12 0.0 0.0 0.00 0.00 0.00 79 1015.7
20260906053807 12 0.0 0.0 0.00 0.00 0.00 78 1015.8
20260906052734 12 0.0 0.0 0.00 0.00 0.00 78 1015.7
20260906051642 13 0.0 0.0 0.00 0.00 0.00 78 1015.8
20260906050709 13 0.0 0.0 0.00 0.00 0.00 78 1015.9
20260906045709 13 0.0 0.0 0.00 0.00 0.00 78 1015.9
20260906044708 13 0.0 0.0 0.00 0.00 0.00 77 1015.9
20260906043621 13 0.0 0.0 0.00 0.00 0.00 76 1016.0
20260906042526 13 0.0 0.0 0.00 0.00 0.00 76 1016.0
20260906041534 13 0.0 0.0 0.00 0.00 0.00 75 1015.9
20260906040404 14 0.0 0.0 0.00 0.00 0.00 75 1016.0
20260906035442 14 0.0 0.0 0.00 0.00 0.00 75 1016.0
20260906034504 15 0.0 0.0 0.00 0.00 0.00 75 1015.9
20260906033508 15 0.0 0.0 0.00 0.00 0.00 74 1015.8
20260906032545 15 0.0 0.0 0.00 0.00 0.00 73 1015.8
20260906031440 15 0.0 0.0 0.00 0.00 0.00 73 1015.6
20260906030417 16 0.0 0.0 0.00 0.00 0.00 72 1015.5
20260906025254 16 0.0 0.0 0.00 0.00 0.00 71 1015.5
20260906024140 17 0.0 0.0 0.00 0.00 0.00 70 1015.4
20260906022215 18 0.0 0.0 0.00 0.00 0.00 67 1015.1
20260906021229 19 0.0 0.0 0.00 0.00 0.00 63 1015.0
20260906020133 20 0.0 0.0 0.00 0.00 0.00 58 1015.0
20260906015216 21 0.0 0.0 0.00 0.00 0.00 53 1014.9
20260906014238 21 0.0 0.0 0.00 0.00 0.00 52 1014.7
20260906013157 20 0.0 0.0 0.00 0.00 0.00 57 1014.7
20260906013112 20 0.0 0.0 0.00 0.00 0.00 57 1014.7
20260906012004 20 0.0 0.0 0.00 0.00 0.00 58 1014.8
20260906011029 19 0.0 0.0 0.00 0.00 0.00 60 1014.8
20260906005929 18 0.0 0.0 0.00 0.00 0.00 62 1015.0
20260906004838 18 0.0 0.0 0.00 0.00 0.00 64 1014.9
20260906003748 18 0.0 0.0 0.00 0.00 0.00 66 1014.9
20260906002623 18 0.0 0.0 0.00 0.00 0.00 65 1014.9
20260906001646 18 0.0 0.0 0.00 0.00 0.00 65 1014.8
20260906000518 18 0.0 0.0 0.00 0.00 0.00 63 1014.6
20260905235506 18 0.0 0.0 0.00 0.00 0.00 63 1014.7
20260905234503 18 0.0 0.0 0.00 0.00 0.00 63 1014.7
20260905233417 18 0.0 0.0 0.00 0.00 0.00 61 1014.7
20260905232443 18 0.0 0.0 0.00 0.00 0.00 62 1014.7
20260905231444 18 0.0 0.0 0.00 0.00 0.00 58 1014.8
20260905230508 18 0.0 0.0 0.00 0.00 0.00 60 1014.8
20260905225419 18 0.0 0.0 0.00 0.00 0.00 60 1015.1
20260905224323 18 0.0 0.0 0.00 0.00 0.00 60 1015.2
20260905223145 18 0.0 0.0 0.00 0.00 0.00 59 1015.3
20260905222209 18 0.0 0.0 0.00 0.00 0.00 61 1015.3
20260905221231 18 0.0 0.0 0.00 0.00 0.00 59 1015.6
20260905220208 18 0.0 0.0 0.00 0.00 0.00 59 1015.6
20260905215238 18 0.0 0.0 0.00 0.00 0.00 60 1015.6
20260905214124 18 0.0 0.0 0.00 0.00 0.00 60 1015.6
20260905213006 18 0.0 0.0 0.00 0.00 0.00 60 1015.7
20260905212553 18 0.0 0.0 0.00 0.00 0.00 61 1015.6
20260905212006 18 0.0 0.0 0.00 0.00 0.00 63 1015.7
20260905211842 17 0.0 0.0 0.00 0.00 0.00 63 1015.7
20260905211647 17 0.0 0.0 0.00 0.00 0.00 63 1015.8
20260905210909 17 0.0 0.0 0.00 0.00 0.00 64 1015.8
20260905205808 17 0.0 0.0 0.00 0.00 0.00 63 1016.1
20260905204634 17 0.0 0.0 0.00 0.00 0.00 64 1016.2
20260905203623 16 0.0 0.0 0.00 0.00 0.00 65 1016.3
20260905202610 15 0.0 0.0 0.00 0.00 0.00 67 1016.5
20260905201541 15 0.0 0.0 0.00 0.00 0.00 70 1016.5
20260905200617 15 0.0 0.0 0.00 0.00 0.00 70 1016.5
20260905195615 15 0.0 0.0 0.00 0.00 0.00 72 1016.5
20260905194600 14 0.0 0.0 0.00 0.00 0.00 72 1016.6
20260905193640 14 0.0 0.0 0.00 0.00 0.00 72 1016.7
20260905192528 14 0.0 0.0 0.00 0.00 0.00 73 1016.7
20260905191459 14 0.0 0.0 0.00 0.00 0.00 73 1016.7
20260905190433 14 0.0 0.0 0.00 0.00 0.00 74 1016.9
20260905185458 13 0.0 0.0 0.00 0.00 0.00 74 1017.0
20260905184528 13 0.0 0.0 0.00 0.00 0.00 76 1017.1
20260905183405 13 0.0 0.0 0.00 0.00 0.00 77 1017.3
20260905182414 13 0.0 0.0 0.00 0.00 0.00 80 1017.3
20260905181348 12 0.0 0.0 0.00 0.00 0.00 82 1017.4
20260905180430 12 0.0 0.0 0.00 0.00 0.00 83 1017.4
20260905175329 12 0.0 0.0 0.00 0.00 0.00 83 1017.4
20260905174359 12 0.0 0.0 0.00 0.00 0.00 84 1017.4
20260905173405 12 0.0 0.0 0.00 0.00 0.00 84 1017.2
20260905171302 12 0.0 0.0 0.00 0.00 0.00 84 1017.2
20260905170148 12 0.0 0.0 0.00 0.00 0.00 85 1017.1
20260905165020 12 0.0 0.0 0.00 0.00 0.00 85 1017.2
20260905164009 12 0.0 0.0 0.00 0.00 0.00 85 1017.1
20260905162923 11 0.0 0.0 0.00 0.00 0.00 86 1017.1
20260905161834 11 0.0 0.0 0.00 0.00 0.00 87 1017.1
20260905160657 11 0.0 0.0 0.00 0.00 0.00 88 1017.2
20260905155619 10 0.0 0.0 0.00 0.00 0.00 89 1017.1
20260905155404 10 0.0 0.0 0.00 0.00 0.00 89 1017.2
20260905154817 10 0.0 0.0 0.00 0.00 0.00 89 1017.2
20260905153853 10 0.0 0.0 0.00 0.00 0.00 90 1017.2
20260905153700 10 0.0 0.0 0.00 0.00 0.00 90 1017.3
20260905152657 10 0.0 0.0 0.00 0.00 0.00 91 1017.2
20260905152634 10 0.0 0.0 0.00 0.00 0.00 91 1017.2
20260905151547 10 0.0 0.0 0.00 0.00 0.00 92 1017.2
20260905150542 9 0.0 0.0 0.00 0.00 0.00 92 1017.1
20260905150513 9 0.0 0.0 0.00 0.00 0.00 92 1017.0
20260905150237 9 0.0 0.0 0.00 0.00 0.00 92 1017.0
20260905145916 9 0.0 0.0 0.00 0.00 0.00 92 1017.0
20260905145356 9 0.0 0.0 0.00 0.00 0.00 92 1017.0
20260905144318 9 0.0 0.0 0.00 0.00 0.00 92 1016.8